GEFSSE_con_prob3kmehi_000.txt.gz
EHI
0 0 0 0 0 0 0 2 7 10 6 3 1 0 0 0 0 0 0 0 0 0 0 0 0 0 0 0 0 0 0 0 0 0 0 0 0 0 0 0 0 0 0
0 0 0 0 0 0 0 3 12 17 13 7 4 1 0 0 0 0 0 0 0 0 0 0 0 0 0 0 0 0 0 0 0 0 0 0 0 0 0 0 0 0 0
0 0 0 0 0 0 1 5 18 28 21 10 5 1 0 0 0 0 0 0 0 0 0 0 0 0 0 0 0 0 0 0 0 0 0 0 0 0 0 0 0 0 0
0 0 0 0 0 0 2 7 22 30 19 6 2 1 0 0 0 0 0 0 0 0 0 0 0 0 0 0 0 0 0 0 0 0 0 0 0 0 0 0 0 0 0
0 0 0 0 0 0 1 7 17 19 10 2 0 0 0 0 0 0 0 0 0 0 0 0 0 0 0 0 0 0 0 0 0 0 0 0 0 1 0 0 0 0 0
0 0 0 0 0 0 0 3 7 8 3 0 0 0 0 0 0 0 0 0 0 0 0 0 0 0 0 0 0 0 0 0 0 0 0 0 4 8 4 0 0 0 0
1 0 0 0 0 0 0 0 2 4 3 0 0 0 0 0 0 0 0 0 0 0 0 0 0 0 0 0 0 0 0 0 0 0 0 5 18 23 10 0 0 0 0
1 0 0 0 0 0 0 0 1 4 4 1 0 0 0 0 0 0 0 0 0 0 0 0 0 0 0 0 0 0 0 0 0 0 0 9 28 28 10 0 0 0 0
1 0 0 0 0 0 0 0 1 3 3 1 0 0 0 0 0 0 0 0 0 0 0 0 0 0 0 0 0 0 0 0 0 0 0 10 23 21 6 0 0 0 0
0 0 0 0 0 0 0 0 0 1 1 0 0 0 0 0 0 0 0 0 0 0 0 0 0 0 0 0 0 0 0 0 0 0 0 9 19 12 2 0 0 0 0
0 0 0 0 0 0 0 0 0 0 0 0 0 0 0 0 0 0 1 1 0 0 0 0 0 0 0 0 0 0 0 0 0 0 0 7 12 7 0 0 0 0 0
0 0 0 0 0 0 0 0 0 0 0 0 0 0 0 0 0 0 2 2 1 0 0 0 0 0 0 0 0 0 0 0 0 0 1 4 5 2 0 0 0 0 0
0 0 0 0 0 0 0 0 0 1 0 0 0 0 0 0 0 0 1 1 0 0 0 0 0 0 0 0 0 0 0 0 0 0 4 8 5 1 0 0 0 0 0
0 0 0 0 0 0 1 1 1 2 1 0 0 0 0 0 0 0 0 0 0 0 0 0 0 0 0 0 0 0 0 0 0 0 6 18 16 6 0 0 0 0 1
0 0 0 1 0 1 2 1 1 1 0 0 0 0 0 0 0 0 0 0 0 0 0 0 0 0 0 0 0 0 0 0 0 0 5 22 34 21 6 2 0 1 2
4 2 0 0 0 0 1 1 0 0 0 0 0 1 1 1 0 0 0 0 0 0 1 1 0 0 0 0 0 0 0 0 0 0 1 15 33 31 16 8 2 1 2
35 28 20 12 6 2 0 0 0 0 0 0 0 1 2 1 0 0 0 0 0 0 1 1 0 0 0 0 0 0 0 0 0 0 0 5 14 21 19 13 7 3 2
78 72 57 36 18 10 7 4 2 1 0 1 1 3 4 2 1 1 1 0 0 0 0 0 0 0 0 0 0 0 0 0 0 0 0 0 2 6 11 14 13 12 13
81 78 65 41 24 20 19 15 11 5 1 3 9 18 20 10 3 2 2 1 0 0 1 1 1 0 0 0 0 0 0 0 0 0 0 0 0 1 4 10 17 28 39
42 41 34 23 16 20 25 30 30 21 11 13 28 44 40 18 4 4 4 2 0 1 2 2 1 1 1 0 0 0 0 0 0 0 0 0 0 0 1 4 17 40 58
9 9 7 6 6 14 29 43 49 39 25 29 45 53 39 15 3 8 13 10 4 1 1 1 1 0 0 0 0 0 0 0 0 0 0 0 0 0 0 0 16 43 55
0 0 0 0 1 11 32 52 55 41 27 29 38 38 22 7 3 11 22 21 11 3 0 0 0 0 0 0 0 0 0 0 0 0 0 0 0 0 0 0 12 30 39
0 0 0 0 0 7 23 40 41 26 13 13 17 17 11 4 3 9 17 19 13 4 0 0 0 0 0 0 0 0 0 0 0 0 0 0 0 0 0 0 4 11 15
0 0 0 0 0 2 7 14 14 9 3 2 3 5 4 2 1 3 5 6 5 2 0 0 0 0 0 0 0 0 0 0 0 0 0 0 0 0 0 0 0 0 1
0 0 0 0 0 0 0 0 0 0 0 0 0 1 1 0 0 0 0 0 0 0 0 0 0 0 0 0 0 0 0 0 0 0 0 0 0 0 0 0 0 0 0
0 0 0 1 1 1 0 0 0 0 0 0 0 0 0 0 0 0 0 0 0 0 0 0 0 0 0 0 0 0 0 0 0 0 0 0 0 0 0 0 0 0 0

GEFSSE_con_prob3kmehi_006.txt.gz
EHI
0 14 27 16 1 0 0 0 0 0 0 0 0 0 0 0 0 0 0 0 0 0 0 0 0 0 0 0 0 0 0 0 0 0 0 0 0 0 0 0 0 0 0
0 13 27 18 3 0 0 0 0 0 0 0 0 0 0 0 0 0 0 0 0 0 0 0 0 0 0 0 0 0 0 0 0 0 0 0 0 0 0 0 0 0 0
0 7 18 19 8 1 0 0 0 0 0 0 0 0 0 0 0 0 0 0 0 0 0 0 0 0 0 0 0 0 0 0 0 0 0 0 0 0 0 0 0 0 0
0 1 9 18 14 4 0 0 0 0 0 0 0 0 0 0 0 0 0 0 0 0 0 0 0 0 0 0 0 0 0 0 0 0 0 0 1 1 0 0 0 0 0
0 0 4 13 15 6 1 0 0 0 0 0 0 1 1 0 0 0 0 0 0 0 0 0 0 0 0 0 0 0 0 0 0 0 0 1 4 5 3 1 0 0 0
0 0 2 7 9 5 1 0 0 0 0 0 0 1 1 0 0 0 0 0 0 0 0 0 0 0 0 0 0 0 0 0 0 0 0 3 14 24 19 7 1 0 0
1 1 2 4 5 3 1 0 0 0 0 0 0 1 1 0 0 0 0 0 0 0 0 0 0 0 0 0 0 0 0 0 0 0 0 8 33 59 52 25 9 3 0
8 7 3 3 4 3 1 0 0 0 0 0 0 0 0 0 0 0 0 0 0 0 0 0 0 0 0 0 0 0 0 0 0 0 1 18 56 86 81 55 29 11 3
23 16 5 1 2 3 2 1 0 0 0 0 0 0 0 0 0 0 1 1 1 1 1 1 0 0 1 1 1 0 0 0 0 0 3 28 71 96 93 75 50 25 11
49 30 8 1 2 2 2 1 0 0 0 0 0 0 0 0 0 0 1 2 2 2 3 4 4 3 4 6 5 4 2 1 0 0 4 31 76 99 95 78 56 36 22
78 52 18 4 5 3 1 1 0 0 0 0 0 0 0 0 0 2 3 5 5 7 12 16 13 9 7 9 11 10 6 2 1 0 10 42 81 99 94 75 50 33 24
95 71 32 18 18 9 4 6 4 0 1 1 1 3 3 1 0 4 13 19 19 17 19 21 18 11 6 5 8 11 6 1 0 1 20 58 88 98 93 71 41 21 15
97 80 52 44 43 21 11 18 13 6 6 7 10 14 12 6 2 9 30 46 43 31 22 20 18 11 4 2 3 5 4 1 1 5 27 60 84 95 92 67 33 12 6
92 85 75 73 69 49 38 43 40 30 29 31 35 38 31 18 8 15 45 66 61 46 41 39 32 18 8 4 3 3 4 4 4 13 33 54 72 89 92 73 41 15 6
88 88 91 93 90 83 76 78 75 69 61 58 60 60 50 34 21 30 60 76 62 49 57 66 58 41 27 20 13 7 3 5 13 32 49 56 66 84 94 86 61 30 14
87 86 93 100 100 99 98 95 92 85 71 58 62 70 68 57 50 61 80 86 68 48 54 73 76 68 57 46 32 17 10 15 32 57 70 67 68 79 92 93 77 48 29
83 81 89 97 99 100 99 94 88 79 64 55 61 76 86 85 84 90 96 97 84 67 63 74 80 78 69 55 41 30 31 44 58 73 83 81 75 75 85 93 85 64 46
77 80 86 90 93 97 97 92 84 77 70 68 74 87 96 99 100 100 100 99 96 89 82 79 79 78 70 55 42 40 53 66 66 67 75 81 78 75 82 92 91 77 63
63 70 75 73 77 87 92 91 86 83 78 75 81 91 97 99 100 100 100 100 98 94 87 82 83 87 82 67 48 43 54 59 49 41 46 55 59 61 68 82 92 86 76
48 55 60 58 62 73 82 86 89 89 84 77 79 88 94 97 98 98 97 96 93 87 81 82 88 95 96 86 62 47 45 37 24 17 19 23 25 28 36 56 77 83 79
41 46 53 57 59 62 69 76 82 86 87 86 85 88 92 94 94 93 89 84 79 74 73 80 90 97 99 93 78 60 41 23 10 7 12 17 11 5 10 25 47 65 71
28 32 43 55 59 58 58 60 65 72 79 85 88 91 92 93 90 84 76 69 66 65 68 77 87 91 92 88 76 58 36 19 11 10 16 24 18 7 3 7 19 37 51
8 12 24 44 58 58 51 40 39 48 56 62 73 83 89 90 86 76 64 58 57 61 66 74 77 75 71 64 49 33 21 15 15 13 13 19 20 12 4 2 5 14 22
0 2 12 33 50 55 47 34 25 25 26 33 47 64 77 83 78 66 54 47 46 50 58 59 54 48 41 31 20 11 7 8 8 7 5 8 10 9 5 3 3 4 6
0 1 5 15 29 41 46 46 37 22 13 15 24 39 56 67 65 52 41 35 33 34 36 32 25 20 16 9 4 3 3 2 1 0 0 1 2 3 3 4 3 2 2
0 0 0 3 12 27 45 56 52 33 17 11 12 22 39 54 52 40 30 27 25 22 18 13 9 5 4 2 1 0 1 0 0 0 0 0 0 0 1 2 2 1 0

GEFSSE_con_prob3kmehi_012.txt.gz
EHI
0 17 38 28 6 0 0 0 0 0 0 0 0 0 0 0 0 0 0 0 0 0 0 0 0 0 0 0 0 0 0 0 0 0 0 0 0 0 0 0 0 0 0
1 16 39 34 11 1 0 0 0 0 0 0 0 0 0 0 0 0 0 0 0 0 0 0 0 0 0 0 0 0 0 0 0 0 0 0 0 0 0 0 0 0 0
4 11 27 31 17 4 1 0 0 0 0 0 0 0 0 0 0 0 0 0 0 0 0 0 0 0 0 0 0 0 0 0 0 0 0 0 0 0 0 0 0 0 0
8 8 17 26 25 18 11 3 0 0 0 0 0 0 0 0 0 0 0 0 0 0 0 0 0 0 0 0 0 0 0 0 0 0 0 0 0 0 0 0 0 0 0
8 11 26 37 40 44 35 14 2 0 0 0 0 0 0 0 0 0 0 0 0 0 0 0 0 0 0 0 0 0 0 0 0 0 0 0 0 0 0 0 0 0 0
6 17 45 60 64 73 64 31 7 1 0 0 0 0 0 0 0 0 0 0 0 0 0 0 0 0 0 0 0 0 0 0 0 0 0 0 0 0 0 0 0 0 0
10 27 61 82 86 92 83 51 20 6 1 0 0 0 0 0 0 0 0 0 0 0 0 0 0 0 0 0 0 0 0 0 0 0 0 0 0 1 4 6 6 4 2
19 38 70 90 96 99 93 74 49 30 15 5 0 0 0 0 0 0 0 0 0 0 0 0 0 0 0 0 0 0 0 0 0 0 0 0 0 5 17 28 29 23 17
18 38 64 81 89 94 96 92 83 68 46 22 6 1 0 0 0 0 0 0 0 0 0 0 0 0 0 0 0 0 0 0 0 0 0 0 0 10 36 58 61 54 48
8 21 41 54 64 72 79 87 89 80 59 33 10 1 0 0 0 0 0 0 0 0 0 0 0 0 0 0 0 0 0 0 0 0 0 0 1 14 47 77 85 80 77
1 5 15 24 31 38 46 55 58 49 35 20 7 1 0 0 0 0 0 0 0 0 0 0 0 1 1 1 0 0 0 0 0 0 0 0 1 16 52 84 95 94 93
3 2 3 6 10 14 18 20 19 14 8 4 1 0 0 0 0 0 0 0 0 0 0 1 1 1 2 1 0 0 0 0 0 0 0 0 2 16 50 84 98 99 99
14 7 2 1 2 4 5 3 1 0 0 0 0 0 0 0 0 0 0 0 0 1 1 1 1 1 1 0 0 0 0 0 0 0 0 1 4 18 47 79 95 99 100
33 19 8 5 3 1 0 0 0 0 0 0 0 0 0 0 0 0 0 0 1 2 3 3 2 1 0 0 0 0 0 0 0 0 0 4 13 30 55 76 88 94 96
49 34 27 25 14 4 2 2 1 1 0 0 1 1 1 4 6 6 4 1 1 3 4 4 2 1 0 0 0 0 0 0 0 0 1 9 27 48 67 78 85 89 90
63 53 51 51 34 15 10 12 13 12 8 5 4 4 6 14 23 25 17 8 5 6 5 4 2 0 0 0 0 0 0 0 0 0 1 8 28 52 67 76 82 85 85
78 73 70 70 56 34 24 26 27 23 16 9 6 5 8 19 32 36 27 15 11 12 11 7 3 1 0 0 0 0 0 0 0 0 0 3 15 36 55 65 72 75 76
91 87 83 81 72 50 32 26 22 16 11 6 3 3 4 10 19 23 20 15 17 22 23 17 10 6 3 0 0 0 0 0 0 0 0 1 6 19 37 50 53 53 54
97 93 85 75 61 42 23 12 6 3 2 1 0 0 0 1 4 5 8 15 26 36 38 31 23 16 8 3 1 0 0 0 0 0 0 1 3 9 18 28 33 29 26
93 85 67 45 27 16 8 3 0 0 0 0 0 0 0 0 0 3 8 21 37 48 49 44 34 22 13 6 2 0 0 0 0 0 0 0 1 2 4 9 13 12 9
69 57 35 16 4 1 1 0 0 0 0 0 0 0 0 0 1 5 13 23 35 46 50 44 34 22 13 7 3 1 0 0 0 0 0 0 0 0 0 2 3 4 4
32 24 13 5 2 1 1 1 0 0 0 0 0 0 0 1 2 7 16 24 28 33 34 29 22 15 8 5 3 1 0 0 0 0 0 0 0 0 0 1 1 1 1
8 7 6 7 7 7 5 3 1 0 0 0 0 0 0 1 2 6 14 21 21 20 17 12 9 6 2 1 2 1 0 0 0 0 0 0 0 0 0 0 0 0 0
2 3 5 9 12 11 9 6 2 0 0 0 0 0 0 0 1 3 7 11 13 11 7 3 1 1 0 0 0 0 0 0 0 0 0 0 0 0 0 0 0 0 0
1 1 2 6 9 10 9 5 1 0 0 0 0 0 0 0 0 0 1 2 4 4 2 0 0 0 0 0 0 0 0 0 0 0 0 0 0 0 0 0 0 0 0
0 0 1 2 4 7 7 4 1 0 0 0 0 0 0 0 0 0 0 0 1 1 0 0 0 0 0 0 0 0 0 0 0 0 0 0 0 0 0 0 0 0 0

GEFSSE_con_prob3kmehi_018.txt.gz
EHI
0 1 3 1 0 0 0 0 0 0 0 0 0 0 0 0 0 0 0 0 0 0 0 0 0 0 0 0 0 0 0 0 0 0 0 0 0 0 0 0 0 0 0
0 1 3 1 0 0 0 0 0 0 0 0 0 0 0 0 0 0 0 0 0 0 0 0 0 0 0 0 0 0 0 0 0 0 0 0 0 0 0 0 0 0 0
0 1 1 1 0 0 0 0 0 0 0 0 0 0 0 0 0 0 0 0 0 0 0 0 0 0 0 0 0 0 0 0 0 0 0 0 0 0 0 0 0 0 0
0 0 0 0 0 0 0 0 0 0 0 0 0 0 0 0 0 0 0 0 0 0 0 0 0 0 0 0 0 0 0 0 0 0 0 0 0 0 0 0 0 0 0
0 0 0 0 0 0 0 0 0 0 0 0 0 0 0 0 0 0 0 0 0 0 0 0 0 0 0 0 0 0 0 0 0 0 0 0 0 0 0 0 0 0 0
0 0 0 0 0 0 0 0 0 0 0 0 0 0 0 0 0 0 0 0 0 0 0 0 0 0 0 0 0 0 0 0 0 0 0 0 0 0 0 0 0 0 0
1 0 2 3 2 0 0 0 0 0 0 0 0 0 0 0 0 0 0 0 0 0 0 0 0 0 0 0 0 0 0 0 0 0 0 0 0 0 0 0 0 0 0
4 2 3 5 3 1 1 0 0 0 0 0 0 0 0 0 0 0 0 0 0 0 0 0 0 0 0 0 0 0 0 0 0 0 0 0 0 0 0 0 0 0 0
7 6 4 3 3 3 4 2 1 1 0 0 0 0 0 0 0 0 0 0 0 0 0 0 0 0 0 0 0 0 0 0 0 0 0 0 0 0 0 0 0 1 1
6 8 7 6 6 7 7 6 5 3 2 1 0 0 0 0 0 0 0 0 0 0 0 0 0 0 0 0 0 0 0 0 0 0 0 0 0 0 0 0 0 1 2
3 5 8 12 15 16 15 13 11 8 6 3 2 1 0 0 0 0 0 0 0 0 0 0 0 0 0 0 0 0 0 0 0 0 0 0 0 0 0 0 0 1 2
0 2 6 12 20 27 27 22 20 18 12 8 5 3 1 0 0 0 0 0 0 0 0 0 0 0 0 0 0 0 0 0 0 0 0 0 0 0 0 0 0 1 2
0 1 3 6 13 23 26 22 23 24 17 10 6 4 2 1 0 0 0 0 0 0 0 0 0 0 0 0 0 0 0 0 0 0 0 0 0 0 0 0 0 1 2
0 0 1 1 4 9 12 11 14 17 12 7 4 5 7 6 3 0 0 0 0 0 0 0 0 0 0 0 0 0 0 0 0 0 0 0 0 0 0 0 0 0 1
0 0 0 0 0 1 1 2 3 5 4 3 2 5 12 16 12 4 0 0 0 0 0 0 1 1 0 0 0 0 0 0 0 0 0 0 0 0 0 0 0 0 0
1 0 0 0 0 0 0 0 0 0 1 1 1 2 10 19 18 7 1 0 0 0 0 1 2 2 1 0 0 0 0 0 0 0 0 0 0 0 0 0 0 0 0
10 8 5 5 5 4 2 1 0 0 1 1 0 0 4 10 11 5 1 0 1 2 4 5 6 5 3 1 1 1 1 1 1 0 0 0 0 0 0 0 0 0 0
38 32 24 21 18 13 9 6 3 2 1 0 0 1 2 3 4 3 1 0 2 5 7 9 11 9 4 2 3 2 1 1 1 0 0 0 0 0 0 0 0 0 0
66 57 45 36 27 19 13 9 5 3 2 0 1 2 3 3 4 3 2 1 2 5 8 9 11 9 4 2 3 3 2 1 1 0 0 0 0 0 0 0 0 0 0
65 57 43 29 20 13 9 6 3 2 1 0 1 2 3 3 2 2 1 1 3 5 7 8 9 7 4 2 2 3 2 1 1 1 0 0 0 0 0 0 0 0 0
38 32 22 12 6 4 2 1 0 0 0 0 0 1 1 1 0 1 1 3 5 7 6 7 9 10 8 4 3 3 2 1 2 2 2 0 0 0 0 0 0 0 0
12 10 6 3 2 2 1 1 0 0 0 0 0 0 0 0 0 0 1 3 5 5 4 5 9 13 12 7 5 3 1 1 1 2 2 1 0 0 0 0 0 1 1
2 2 2 2 3 3 2 1 0 0 0 0 0 0 0 0 0 0 1 1 1 2 3 3 6 10 12 9 6 3 1 0 0 0 1 0 0 0 0 0 0 0 0
0 0 1 1 1 2 1 1 0 0 0 0 0 0 0 0 0 0 0 0 0 1 1 1 2 5 9 9 7 5 2 0 0 0 0 0 0 0 0 0 0 0 0
0 0 0 0 0 0 0 0 0 0 0 0 0 0 0 0 0 0 0 0 0 0 0 0 0 2 4 5 5 3 2 1 0 0 0 0 0 0 0 0 0 0 0
0 0 0 0 0 0 0 0 0 0 0 0 0 0 0 0 0 0 0 0 0 0 0 0 0 0 1 2 2 1 1 1 1 0 0 0 0 0 0 0 0 0 0

GEFSSE_con_prob3kmehi_024.txt.gz
EHI
0 1 2 1 0 0 0 0 0 0 0 0 0 0 0 0 0 0 0 0 0 0 0 0 0 0 0 0 0 0 0 0 0 0 0 0 0 0 0 1 1 1 0
0 1 1 1 0 1 0 0 0 0 0 0 0 0 0 0 0 0 0 0 0 0 0 0 0 0 0 0 0 0 0 0 0 0 0 0 0 0 0 0 0 0 0
0 0 0 0 1 2 1 0 0 0 0 0 0 0 0 0 0 0 0 0 0 0 0 0 0 0 0 0 0 0 0 0 0 0 0 0 0 0 0 0 0 0 0
0 0 0 0 0 1 0 0 0 0 0 0 0 0 0 0 0 0 0 0 0 0 0 0 0 0 0 0 0 0 0 0 0 0 0 0 0 0 0 0 0 0 0
0 0 0 0 0 0 0 1 1 1 1 0 0 0 0 0 0 0 0 0 0 0 0 0 0 0 0 0 0 0 0 0 0 0 0 0 0 0 0 0 0 0 0
0 0 1 0 0 0 0 1 2 2 2 1 0 1 1 0 0 0 0 0 0 0 0 0 0 0 0 0 0 0 0 0 0 0 0 0 1 2 1 0 0 0 0
0 1 2 1 0 0 0 1 1 1 1 1 0 1 1 0 0 0 0 0 0 0 0 0 0 0 0 0 0 0 0 0 0 0 0 0 1 3 1 0 0 0 0
0 1 2 1 0 0 0 0 0 0 1 1 1 1 1 0 0 0 0 0 0 0 0 0 0 0 0 0 0 0 0 0 0 0 0 3 8 8 3 0 0 0 0
0 0 1 0 0 0 0 0 0 0 0 1 1 0 0 0 0 0 0 0 0 0 0 0 0 0 0 0 0 0 1 1 0 0 0 11 24 19 4 0 0 0 0
0 0 0 0 0 0 0 0 0 0 0 1 1 0 0 0 0 0 0 0 0 0 0 0 0 0 0 0 1 1 2 1 0 0 3 23 41 27 5 0 0 0 0
0 0 0 0 0 0 0 0 0 0 0 0 0 0 0 0 0 0 1 1 0 0 0 0 0 0 0 0 1 2 2 1 0 1 11 38 49 27 4 0 0 0 0
0 0 0 0 0 0 0 0 0 0 0 0 0 0 1 1 0 0 1 2 1 0 0 0 0 0 0 0 1 2 1 0 0 2 18 46 47 21 3 0 0 0 0
0 0 0 0 1 0 0 0 0 0 1 1 1 1 3 6 5 4 4 4 1 0 0 1 1 1 0 0 0 0 0 1 1 2 19 42 39 14 1 0 0 0 0
0 0 0 0 1 1 1 0 0 0 1 2 2 2 6 12 13 13 17 15 10 6 4 4 4 3 2 1 0 0 1 2 2 2 16 34 30 11 1 0 0 0 0
0 0 0 0 0 2 3 3 1 1 1 2 3 3 6 12 16 20 27 28 22 17 14 13 13 10 7 3 1 1 1 3 3 4 11 23 24 11 1 0 0 0 0
0 0 0 0 1 3 6 7 4 2 1 2 3 2 3 8 12 15 18 21 23 23 23 23 21 18 15 9 3 2 5 7 10 9 10 16 19 10 1 0 1 1 1
0 1 2 1 4 8 11 10 7 3 1 1 2 1 1 3 4 5 4 6 13 20 25 29 30 32 31 26 18 16 21 24 23 20 17 16 13 7 3 2 3 3 2
3 6 8 7 9 14 16 13 8 4 1 1 1 0 0 1 1 1 1 2 6 14 21 28 38 47 52 52 47 43 44 44 38 30 23 18 15 11 10 9 8 6 6
9 14 18 19 20 19 18 15 9 4 1 0 0 1 1 1 1 1 2 1 2 7 14 22 36 50 60 63 59 56 55 54 50 40 29 25 23 20 16 16 14 10 7
22 25 27 27 26 22 16 12 7 2 0 0 1 2 3 2 2 2 1 1 0 2 6 12 22 34 45 49 46 46 48 48 50 50 44 36 30 24 19 20 20 14 11
39 36 30 24 21 18 14 10 5 1 0 0 1 3 4 4 3 2 1 0 0 0 2 4 9 15 23 29 32 33 32 33 40 49 51 46 36 29 25 23 25 26 25
49 39 27 18 14 14 16 15 10 6 3 1 1 3 4 3 2 2 1 0 0 0 0 1 3 5 9 16 22 23 20 21 27 35 46 50 46 41 34 27 29 36 37
43 34 22 16 16 22 29 29 23 15 7 2 1 3 4 2 1 0 0 0 0 0 0 1 2 3 4 8 13 15 13 14 16 22 34 44 50 51 42 29 27 32 33
31 24 16 15 21 33 47 49 38 21 7 2 1 2 2 1 1 0 0 0 0 0 0 0 1 2 3 4 6 9 10 10 11 14 22 33 44 51 44 33 28 28 27
25 18 11 13 24 40 56 63 52 30 13 5 1 0 1 2 1 0 0 0 0 0 0 0 0 1 3 3 4 5 8 10 9 8 11 23 38 44 44 40 37 33 30
26 18 9 13 26 41 57 67 60 41 23 10 3 1 1 2 1 0 0 0 0 0 0 0 0 1 2 3 3 4 7 8 7 6 8 19 34 43 47 46 41 37 34

GEFSSE_con_prob3kmehi_030.txt.gz
EHI
7 8 10 6 0 0 0 0 0 0 0 0 0 0 0 0 0 0 0 0 0 0 0 0 0 0 0 0 0 0 0 0 0 0 0 0 0 0 0 0 0 0 0
7 7 8 5 0 0 0 0 0 0 0 0 0 0 0 0 0 0 0 0 0 0 0 0 0 0 0 0 0 0 0 0 0 0 0 0 0 0 0 0 0 0 0
5 4 3 2 0 0 0 0 0 0 0 0 0 0 0 0 0 0 0 0 0 0 0 0 0 0 0 0 0 0 0 0 0 0 0 0 0 0 0 0 0 0 0
2 1 1 0 0 0 0 0 0 0 0 0 0 0 0 0 0 0 0 0 0 0 0 0 0 0 0 0 0 0 0 0 0 0 0 0 0 0 0 0 0 0 0
0 0 1 0 0 0 0 0 0 0 0 0 0 0 0 0 0 0 0 0 0 0 0 0 0 0 0 0 0 0 0 0 0 0 0 1 3 3 1 0 0 0 0
1 1 1 0 0 0 0 0 0 0 0 0 0 0 0 0 0 0 0 0 0 0 0 0 0 0 0 0 0 0 0 0 0 0 0 5 15 19 11 3 0 0 0
7 4 1 0 0 0 0 0 0 0 0 0 0 0 0 0 0 0 0 0 0 0 0 0 0 0 0 0 0 0 0 0 0 0 0 12 39 53 39 19 7 2 0
20 11 3 1 0 0 0 0 0 0 0 0 0 0 0 0 0 0 0 0 0 0 0 0 0 0 0 0 0 0 0 0 0 0 0 21 62 84 73 48 25 9 2
34 21 6 1 1 0 0 0 0 0 0 0 0 0 0 0 0 0 0 0 0 0 0 0 0 0 0 1 1 0 0 0 0 0 0 26 72 97 91 73 48 24 10
44 30 10 2 2 1 0 0 0 0 0 0 0 0 0 0 1 2 2 1 0 0 0 1 1 1 2 4 6 5 3 1 0 0 2 29 75 99 95 84 65 40 22
47 35 17 12 13 5 3 6 4 1 0 0 0 0 0 0 1 5 8 10 13 15 15 14 11 7 4 6 15 21 16 5 1 0 5 35 79 99 96 89 74 50 33
39 30 22 33 35 15 14 22 12 6 11 9 4 8 14 13 6 6 16 30 39 40 35 30 23 12 5 5 20 40 34 14 2 1 13 47 85 99 97 92 78 55 38
27 18 23 51 59 32 29 41 27 21 34 34 25 32 47 41 19 11 27 51 60 54 41 30 22 14 6 6 20 44 46 25 11 11 28 63 90 98 98 91 75 52 36
26 16 26 62 76 57 46 49 41 34 46 57 58 64 73 67 41 27 39 56 60 56 45 33 27 24 20 20 26 38 43 35 29 33 52 77 91 96 96 88 70 46 31
39 28 38 71 89 81 64 54 42 37 47 63 74 80 81 75 58 43 45 49 49 49 51 48 43 41 41 38 36 35 36 39 43 53 69 84 90 91 92 86 70 48 32
58 53 61 80 94 93 79 61 45 39 48 59 68 72 73 71 60 43 38 38 39 43 50 51 48 47 46 43 40 37 34 35 43 55 70 82 86 87 89 87 77 59 46
79 80 82 85 93 96 88 73 54 44 48 57 58 55 55 58 49 34 28 31 37 41 43 43 44 46 45 44 46 46 39 36 39 47 58 70 79 83 86 86 82 73 65
94 96 93 88 93 98 92 80 61 50 52 54 46 44 44 41 32 23 19 24 30 30 29 31 39 45 48 48 49 49 46 44 42 41 46 57 68 75 81 84 85 82 78
98 99 96 94 96 99 92 77 60 53 49 40 29 32 35 25 15 12 10 13 15 15 13 15 25 36 39 38 34 36 43 48 47 42 43 50 59 67 73 79 85 86 83
96 96 97 98 99 97 89 71 56 45 33 19 14 20 21 13 7 6 4 3 5 5 4 5 10 17 19 16 12 15 26 36 42 47 49 51 56 62 66 73 82 86 84
85 88 92 95 93 89 80 68 56 40 21 8 9 16 17 10 5 5 3 1 1 2 1 1 2 4 4 4 4 6 10 16 27 42 54 59 59 60 62 68 77 83 84
62 68 77 83 80 73 67 60 52 40 22 11 16 27 29 21 13 8 6 3 1 1 0 0 0 0 0 1 3 4 3 5 12 24 41 55 62 65 64 63 69 76 77
42 49 60 67 67 63 63 57 51 45 32 23 30 45 49 38 23 14 9 5 2 1 0 0 0 0 0 0 1 2 2 2 3 8 18 32 50 65 65 58 58 65 69
32 40 51 59 63 67 70 68 62 54 45 42 50 61 62 47 31 22 15 9 5 2 0 0 0 0 0 0 0 1 1 0 0 2 4 11 29 49 59 58 58 62 66
22 31 43 53 62 69 75 74 70 61 55 58 65 70 65 51 39 33 25 19 12 5 2 1 1 1 0 1 1 0 0 0 0 0 1 3 12 30 47 59 65 68 69
13 22 34 47 58 66 72 72 68 63 62 64 69 72 66 57 49 42 35 28 19 9 3 2 2 2 1 2 2 1 0 0 0 0 0 0 5 19 39 57 68 73 75

GEFSSE_con_prob3kmehi_036.txt.gz
EHI
0 5 11 8 3 1 0 0 0 0 0 0 0 0 0 0 0 0 0 0 0 0 0 0 0 0 0 0 0 0 0 0 0 0 0 0 0 0 0 0 0 0 0
1 7 15 14 6 2 0 0 0 0 0 0 0 0 0 0 0 0 0 0 0 0 0 0 0 0 0 0 0 0 0 0 0 0 0 0 0 0 0 0 0 0 0
4 10 21 23 14 4 0 0 0 0 0 0 0 0 0 0 0 0 0 0 0 0 0 0 0 0 0 0 0 0 0 0 0 0 0 0 0 0 0 0 0 0 0
9 14 27 36 27 11 3 0 0 0 0 0 0 0 0 0 0 0 0 0 0 0 0 0 0 0 0 0 0 0 0 0 0 0 0 0 0 0 0 0 0 0 0
9 16 36 52 42 20 6 1 0 0 0 0 0 0 0 0 0 0 0 0 0 0 0 0 0 0 0 0 0 0 0 0 0 0 0 0 0 0 0 0 0 0 0
7 19 45 65 58 33 13 4 1 0 0 0 0 0 0 0 0 0 0 0 0 0 0 0 0 0 0 0 0 0 0 0 0 0 0 0 0 0 0 0 0 0 0
10 23 50 71 68 48 24 9 2 0 0 0 0 0 0 0 0 0 0 0 0 0 0 0 0 0 0 0 0 0 0 0 0 0 0 0 0 1 2 4 3 2 0
16 29 49 65 66 53 33 14 4 1 0 0 0 0 0 0 0 0 0 0 0 0 0 0 0 0 0 0 0 0 0 0 0 0 0 0 0 3 10 15 13 6 2
16 30 44 49 46 39 26 12 5 2 0 0 0 0 0 0 0 0 0 0 0 0 0 0 0 0 0 0 0 0 0 0 0 0 0 0 1 6 21 32 29 18 10
11 23 37 36 26 17 10 7 4 2 1 0 0 0 0 0 0 0 0 0 0 0 0 0 0 0 0 0 0 0 0 0 0 0 0 0 1 7 25 45 50 39 30
10 16 29 31 21 9 4 3 3 2 1 0 0 0 0 0 0 0 0 0 0 0 0 0 0 0 0 0 0 0 0 0 0 0 0 0 1 6 23 49 65 61 53
16 15 21 27 22 13 6 4 4 3 1 0 0 0 0 0 0 0 0 0 0 0 0 0 0 1 1 1 1 1 1 0 0 0 0 0 0 3 16 42 65 69 65
26 18 16 20 20 14 7 5 4 3 1 0 0 0 0 0 0 0 0 0 0 0 1 1 1 2 3 4 4 3 1 1 1 1 0 0 0 1 10 32 55 65 65
44 29 16 13 13 10 6 5 4 3 2 1 0 0 0 0 0 0 0 0 0 1 2 2 2 2 3 4 5 3 1 1 2 2 1 1 0 1 7 23 44 57 60
57 41 22 12 9 7 5 6 5 4 3 2 1 1 2 3 2 1 0 0 0 1 2 2 1 1 2 4 4 2 1 1 3 4 4 2 1 2 8 19 36 49 52
53 42 27 17 13 10 11 14 14 13 12 10 6 5 7 9 6 2 0 0 0 1 1 1 0 0 1 2 2 2 1 1 3 4 4 3 3 4 8 15 27 39 43
39 34 27 23 21 21 24 30 33 29 25 19 13 11 12 12 6 1 0 0 0 0 0 0 0 0 0 1 1 1 2 2 3 3 3 3 5 5 5 8 17 26 30
26 24 22 23 24 28 34 40 41 36 30 22 17 15 15 10 4 1 0 0 0 0 0 0 0 0 0 0 0 1 1 1 2 2 2 3 4 6 5 5 8 12 13
17 16 16 16 20 25 32 34 31 28 25 19 15 15 13 8 3 1 0 0 0 0 0 0 0 0 0 0 0 0 0 0 0 0 1 2 3 6 8 6 6 6 5
11 11 9 10 13 18 22 22 19 18 16 12 9 9 7 5 2 1 0 0 0 0 0 0 0 0 0 0 0 0 0 0 0 0 0 1 2 4 5 7 8 8 6
5 5 5 5 8 11 13 12 12 11 8 5 3 3 3 2 1 0 0 0 0 0 0 0 0 0 0 0 0 0 0 0 0 0 0 0 1 2 3 6 9 10 9
1 1 2 3 4 6 7 7 6 5 3 1 0 1 1 2 2 1 0 0 0 0 0 0 0 0 0 0 0 0 0 0 0 0 0 0 0 1 3 5 7 7 8
0 0 1 1 1 3 5 5 5 4 3 2 1 1 1 2 2 1 0 0 0 0 0 0 0 0 0 0 0 0 0 0 0 0 0 0 0 0 1 2 2 3 5
0 0 0 0 0 1 2 3 4 4 4 4 3 2 1 1 1 0 0 0 0 0 0 0 0 0 0 0 0 0 0 0 0 0 0 0 0 0 0 0 0 1 2
0 0 0 0 0 0 0 1 2 2 3 3 2 2 1 0 0 0 0 0 0 0 0 0 0 0 0 0 0 0 0 0 0 0 0 0 0 0 0 0 0 0 1
0 0 0 0 0 0 0 0 0 1 1 1 1 1 1 0 0 0 0 0 0 0 0 0 0 0 0 0 0 0 0 0 0 0 0 0 0 0 0 0 0 0 0

GEFSSE_con_prob3kmehi_042.txt.gz
EHI
0 2 4 4 2 3 3 6 17 33 47 53 51 40 24 11 4 2 1 0 0 0 0 0 0 0 0 0 0 0 0 0 0 0 0 0 0 0 0 0 0 0 0
0 2 3 3 3 3 3 4 10 22 32 37 35 27 15 7 3 1 0 0 0 0 0 0 0 0 0 0 0 0 0 0 0 0 0 0 0 0 0 0 0 0 0
1 2 2 3 4 3 3 3 5 9 15 18 15 10 6 3 1 0 0 0 0 0 0 0 0 0 0 0 0 0 0 0 0 0 0 0 0 0 0 0 0 0 0
1 2 3 7 8 5 4 3 3 5 7 8 6 4 3 2 0 0 0 0 0 0 0 0 0 0 0 0 0 0 0 0 0 0 0 0 0 0 0 0 0 0 0
1 1 9 21 21 13 8 5 4 4 4 4 4 3 3 2 1 0 0 0 0 0 0 0 0 0 0 0 0 0 0 0 0 0 0 0 0 0 0 0 0 0 0
1 2 18 41 42 26 16 10 6 4 3 3 3 3 3 2 1 0 0 0 0 0 0 0 0 0 0 0 0 0 0 0 0 0 0 0 0 0 0 0 0 0 0
6 7 27 54 57 40 26 16 10 6 4 3 3 2 1 1 0 0 0 0 0 0 0 0 0 0 0 0 0 0 0 0 0 0 0 0 0 0 0 0 0 0 1
21 23 36 55 59 48 36 25 16 9 5 3 3 1 0 0 0 0 0 0 0 0 0 0 0 0 0 0 0 0 0 0 0 0 0 0 0 0 0 0 0 1 2
37 42 47 54 57 51 41 30 22 13 6 3 2 1 0 0 0 0 0 0 0 0 0 0 0 0 0 0 0 0 0 0 0 0 0 0 0 0 0 0 0 1 2
42 49 53 53 55 52 41 29 19 12 6 2 1 0 0 0 0 0 0 0 0 0 0 0 0 0 0 0 0 0 0 0 0 0 0 0 0 0 0 0 0 0 1
35 42 48 51 54 51 40 24 14 9 5 2 1 1 1 0 0 0 0 0 0 0 0 0 0 0 0 0 0 0 0 0 0 0 0 0 0 0 0 0 0 0 1
29 35 42 47 51 51 43 26 14 10 7 4 3 2 2 2 1 1 0 0 0 0 0 0 0 0 0 0 0 0 0 0 0 0 0 0 0 0 0 0 0 1 1
30 35 41 44 46 48 44 30 19 15 13 9 6 5 5 5 5 3 2 1 0 0 0 0 0 0 0 0 0 0 0 0 0 0 0 0 0 0 0 1 2 2 1
35 39 42 41 40 39 36 27 21 18 16 14 12 12 11 9 7 6 4 2 1 0 0 0 1 1 1 0 1 1 1 0 0 0 0 0 0 1 0 1 3 3 3
35 36 36 32 29 26 23 19 16 15 14 15 17 19 19 15 9 6 4 3 1 0 0 1 1 1 1 1 1 0 1 1 1 0 1 0 0 0 0 1 2 3 3
27 26 24 20 17 16 16 14 10 10 10 12 15 17 19 16 9 4 4 4 2 1 0 1 1 1 1 0 0 0 1 1 1 0 0 0 0 0 0 1 2 2 1
19 17 14 11 10 11 13 12 9 8 8 9 11 11 11 10 7 4 4 3 3 1 0 0 1 1 0 0 0 0 0 0 0 0 0 0 0 0 0 1 3 3 1
12 11 9 8 8 9 10 10 9 8 8 9 9 7 6 5 4 5 4 2 2 1 0 0 0 0 0 0 0 0 0 0 0 0 0 0 0 0 0 1 3 3 1
5 6 7 7 7 7 8 9 8 8 10 10 8 5 5 4 4 4 3 1 1 1 0 0 0 0 0 0 0 0 0 0 0 0 0 0 0 0 0 0 1 2 1
1 3 5 6 5 5 7 8 7 7 8 9 7 6 4 4 4 3 1 0 0 0 0 0 0 0 0 0 0 0 0 0 0 0 0 0 0 0 0 0 0 1 1
0 1 3 3 3 3 4 6 5 5 5 5 6 5 3 2 3 3 1 0 0 0 0 0 0 0 0 0 0 0 0 0 0 0 0 0 0 0 0 0 0 0 1
1 1 1 1 1 0 1 3 3 3 3 3 3 3 2 1 1 2 1 0 0 0 0 0 0 0 0 0 0 0 0 0 0 0 0 0 0 0 0 0 0 0 1
0 0 0 0 0 0 0 1 1 1 2 1 1 1 1 1 0 0 0 0 0 0 0 0 0 0 0 0 0 0 0 0 0 0 0 0 0 0 0 0 0 0 0
0 0 0 0 0 0 0 0 0 0 0 0 0 0 0 0 0 0 0 0 0 0 0 0 0 0 0 0 0 0 0 0 0 0 0 0 0 0 0 0 0 0 0
0 0 0 0 0 0 0 0 0 0 0 0 0 0 0 0 0 0 0 0 0 0 0 0 0 0 0 0 0 0 0 0 0 0 0 0 0 0 0 0 0 0 0
0 0 0 0 0 0 0 0 0 0 0 0 0 0 0 0 0 0 0 0 0 0 0 0 0 0 0 0 0 0 0 0 0 0 0 0 0 0 0 0 0 0 0

GEFSSE_con_prob3kmehi_048.txt.gz
EHI
19 32 32 13 2 0 0 2 6 10 10 11 11 8 4 2 1 0 0 0 0 0 0 0 0 0 0 0 0 0 0 0 0 0 0 0 0 0 0 0 0 0 0
25 37 33 13 2 0 0 1 5 9 9 11 13 10 5 2 1 0 0 0 0 0 0 0 0 0 0 0 0 0 0 0 0 0 0 0 0 0 0 0 0 0 0
29 37 30 11 3 0 0 1 4 7 9 11 14 11 5 2 1 0 0 0 0 0 0 0 0 0 0 0 0 0 0 0 0 0 0 0 0 0 0 0 0 0 0
23 29 24 11 3 0 0 0 2 5 8 9 9 7 3 1 0 0 0 0 0 0 0 0 0 0 0 0 0 0 0 0 0 0 0 0 0 0 0 0 0 0 0
17 22 23 13 3 0 0 0 1 3 4 5 4 2 1 0 0 0 0 0 0 0 0 0 0 0 0 0 0 0 0 0 0 0 0 0 0 0 0 0 0 0 0
14 18 21 14 4 1 0 0 0 1 1 1 1 0 0 0 0 0 0 0 0 0 0 0 0 0 0 0 0 0 0 0 0 0 0 0 0 0 0 0 0 0 0
8 11 16 13 5 1 0 0 0 0 0 0 0 0 0 0 0 0 0 0 0 0 0 0 0 0 0 0 0 0 0 0 0 0 0 0 0 0 0 0 0 0 0
2 5 11 11 5 1 0 1 1 1 1 0 0 0 0 0 0 0 0 0 0 0 0 0 0 0 0 0 0 0 0 0 0 0 0 0 0 0 0 0 0 0 0
0 2 5 5 3 1 0 1 2 2 2 2 2 2 1 0 0 0 0 0 0 0 0 0 0 0 0 0 0 0 0 0 0 0 0 3 5 3 0 0 0 0 0
0 0 1 1 1 0 0 1 2 4 5 6 6 5 4 2 0 0 1 1 1 0 0 0 0 0 0 0 0 0 0 0 0 0 1 7 12 6 0 0 0 0 0
2 2 2 3 3 2 1 1 3 6 9 10 10 10 8 5 2 1 4 8 5 1 0 0 0 0 0 0 0 0 0 0 0 0 6 17 19 7 0 0 0 0 0
10 9 11 13 13 10 7 7 8 11 13 14 16 19 20 17 12 8 10 15 11 4 1 1 1 0 0 0 1 1 0 0 0 0 14 34 28 8 0 0 0 0 0
25 21 21 25 25 21 18 17 16 18 20 20 26 35 39 39 33 25 21 19 14 10 8 8 7 4 1 1 2 2 1 1 2 2 23 47 36 9 0 0 0 0 0
36 30 29 35 37 35 31 28 24 24 24 25 33 44 52 57 52 43 39 32 22 17 17 17 14 10 5 3 2 1 1 2 3 5 26 46 33 8 1 0 1 1 0
38 33 32 39 43 44 43 39 32 28 24 24 30 40 50 56 53 51 55 51 32 20 19 19 15 12 11 6 1 0 0 1 3 6 19 31 23 8 3 2 2 1 1
38 35 33 36 40 42 44 41 33 27 23 20 22 29 38 44 46 50 58 54 36 22 21 21 16 15 14 8 2 0 1 3 4 5 9 14 13 7 5 5 4 2 1
39 36 31 29 30 32 34 31 22 17 16 16 19 23 26 31 38 45 50 46 35 29 30 28 21 17 13 7 3 3 5 7 6 5 5 7 7 4 3 4 4 3 2
35 31 26 22 22 23 23 17 11 9 9 13 21 23 19 20 27 35 38 37 35 34 34 30 22 16 11 8 5 4 6 8 5 4 4 5 4 2 1 2 2 3 3
27 24 19 17 16 16 13 9 7 7 8 11 18 18 13 11 16 23 27 28 31 31 29 24 21 15 10 6 4 2 3 4 2 1 1 2 1 1 0 1 2 2 2
18 16 14 13 13 11 9 7 6 7 7 8 10 9 6 6 10 15 17 19 22 22 19 18 17 13 7 3 1 0 0 0 0 0 0 0 0 0 0 1 1 1 1
9 8 8 7 7 8 8 7 7 7 7 5 5 3 2 3 7 10 11 13 15 15 14 14 13 8 4 1 0 0 0 0 0 0 0 0 0 0 0 0 0 0 0
2 2 2 2 3 4 5 4 4 5 5 4 2 1 1 2 4 5 7 9 10 13 13 11 9 7 4 1 0 0 0 0 0 0 0 0 0 0 0 0 0 0 0
0 0 0 0 0 1 1 1 1 1 2 2 1 0 1 1 1 1 3 3 6 9 10 8 6 5 4 1 0 0 0 0 0 0 0 0 0 0 0 0 0 0 0
0 0 0 0 0 0 0 0 0 0 1 1 0 0 0 0 0 0 0 0 2 5 6 4 3 2 1 1 0 0 0 0 0 0 0 0 0 0 0 0 0 0 0
0 0 0 0 0 0 0 0 0 0 0 0 0 0 0 0 0 0 0 0 1 2 3 2 1 1 0 0 0 0 0 0 0 0 0 0 0 0 0 0 0 0 0
0 0 0 0 0 0 0 0 0 0 0 0 0 0 0 0 0 0 0 0 0 0 1 0 1 1 1 0 0 0 0 0 0 0 0 0 0 0 0 0 0 0 0

GEFSSE_con_prob3kmehi_054.txt.gz
EHI
65 57 55 45 25 9 2 0 0 0 0 0 0 0 0 0 0 0 0 0 0 0 0 0 0 0 0 0 0 0 0 0 0 0 0 0 0 0 0 0 0 0 0
66 56 52 45 26 10 3 0 0 0 0 0 0 0 0 0 0 0 0 0 0 0 0 0 0 0 0 0 0 0 0 0 0 0 0 0 0 0 0 0 0 0 0
58 45 41 40 25 11 4 1 0 0 0 0 0 0 0 0 0 0 0 0 0 0 0 0 0 0 0 0 0 0 0 0 0 0 0 0 0 0 0 0 0 0 0
41 29 26 28 20 11 6 3 1 0 0 0 0 0 0 0 0 0 0 0 0 0 0 0 0 0 0 0 0 0 0 0 0 0 0 0 0 0 0 0 0 0 0
29 22 19 19 13 8 6 3 1 0 0 0 1 2 1 1 0 0 0 0 0 0 0 0 0 0 0 0 0 0 0 0 0 0 0 0 0 0 0 0 0 0 0
31 24 17 13 9 6 5 2 0 0 0 1 2 3 3 2 1 0 0 1 1 0 0 0 0 0 0 0 0 0 0 0 0 0 3 7 6 3 1 0 0 0 0
40 31 19 13 9 6 4 1 0 0 0 1 2 3 3 2 1 1 3 5 5 3 1 0 0 0 0 0 0 0 0 0 0 0 9 22 24 14 6 2 0 0 0
54 41 24 16 12 7 4 2 1 0 0 1 3 3 2 1 2 4 8 13 13 8 4 2 1 1 1 0 0 0 0 0 0 0 14 39 49 37 21 8 2 0 0
61 47 27 17 13 8 4 3 2 1 1 2 3 2 1 1 2 5 11 18 19 16 11 7 4 3 3 1 0 0 0 0 0 0 15 46 68 65 44 21 7 2 0
60 45 25 16 13 8 5 4 3 3 3 3 3 2 1 1 1 3 9 19 24 24 20 14 9 7 6 3 1 0 0 0 0 0 13 47 79 84 66 39 16 5 2
55 44 28 22 18 8 7 10 7 4 5 5 4 5 5 3 1 4 16 32 40 39 35 29 20 15 11 6 3 2 2 0 0 1 14 50 84 93 80 57 32 14 5
46 40 37 40 31 14 15 23 14 10 17 15 12 16 17 10 4 10 32 57 65 58 51 45 37 28 18 9 9 14 10 2 0 1 18 57 88 95 87 70 47 25 13
38 37 46 58 52 32 32 37 25 24 37 35 30 35 37 29 19 22 46 74 81 71 59 52 47 35 18 10 17 26 18 4 0 4 25 62 88 93 88 74 54 35 23
45 44 54 71 71 57 51 49 42 41 48 50 49 52 57 57 47 44 60 76 78 70 61 53 47 36 21 14 19 25 19 7 3 8 30 59 79 86 83 71 55 39 29
64 61 66 76 79 72 62 56 52 51 50 49 53 61 69 75 72 67 68 68 62 59 57 51 46 41 35 27 23 24 21 15 11 16 30 51 65 72 72 63 50 37 28
77 75 73 73 75 73 65 57 52 51 49 46 51 63 71 76 76 70 61 52 45 43 43 43 44 46 45 38 32 31 30 25 22 23 31 44 52 54 53 50 44 35 27
82 81 74 67 65 66 62 56 50 48 47 49 53 59 62 64 62 56 47 40 34 30 31 33 36 40 38 34 32 32 32 29 26 27 30 37 40 37 35 35 34 31 26
79 79 74 65 62 62 59 54 47 44 44 46 47 49 49 48 44 40 35 31 26 21 22 25 27 29 28 25 23 23 25 26 22 20 22 25 24 22 22 22 22 22 20
66 68 68 65 62 60 56 50 45 43 40 38 37 37 38 32 28 27 26 24 20 17 16 17 19 21 21 19 15 12 14 16 13 10 11 11 10 12 14 15 15 12 10
45 50 55 57 58 56 53 50 46 43 37 30 26 26 24 19 16 17 19 19 17 15 13 13 13 14 15 13 8 5 5 5 4 3 3 3 3 5 8 13 14 8 4
25 29 36 41 42 42 43 42 40 35 28 19 14 13 12 9 8 10 13 15 15 12 10 10 9 9 9 8 5 2 1 0 0 0 0 0 0 1 5 12 15 11 6
11 14 20 24 25 26 28 27 25 22 17 10 7 8 8 5 3 4 8 10 10 9 8 7 6 6 5 5 4 2 0 0 0 0 0 0 0 1 3 8 14 16 14
5 6 10 16 17 16 16 15 14 12 9 6 7 9 7 3 1 1 3 4 5 7 7 5 4 5 4 4 3 1 0 0 0 0 0 0 0 0 1 3 9 15 16
2 3 8 13 16 15 13 11 8 6 3 3 5 6 5 2 1 0 1 2 2 4 5 4 4 5 5 3 1 1 0 0 0 0 0 0 0 0 0 1 4 9 11
1 1 6 14 18 17 13 9 5 2 1 1 1 2 1 1 1 0 1 1 1 2 2 3 3 5 4 2 0 0 0 0 0 0 0 0 0 0 0 0 2 5 7
1 1 5 15 22 21 14 7 4 2 1 0 0 0 0 0 1 0 0 1 0 0 1 1 2 3 3 1 0 0 0 0 0 0 0 0 1 1 1 1 2 6 9

GEFSSE_con_prob3kmehi_060.txt.gz
EHI
14 27 52 75 86 85 72 49 26 9 2 0 0 0 0 0 0 0 0 0 0 0 0 0 0 0 0 0 0 0 0 0 0 0 0 0 0 0 0 0 0 0 0
28 34 54 75 87 86 73 51 27 8 1 0 0 0 0 0 0 0 0 0 0 0 0 0 0 0 0 0 0 0 0 0 0 0 0 0 0 0 0 0 0 0 0
47 43 51 72 86 85 74 54 28 8 1 0 0 0 0 0 0 0 0 0 0 0 0 0 0 0 0 0 0 0 0 0 0 0 0 0 0 0 0 0 0 0 0
53 46 50 70 83 83 74 56 33 14 4 1 0 0 0 0 0 0 0 0 0 0 0 0 0 0 0 0 0 0 0 0 0 0 0 0 0 0 0 0 0 0 0
47 44 52 70 81 81 73 58 39 22 11 4 1 1 0 0 0 0 0 0 0 0 0 0 0 0 0 0 0 0 0 0 0 0 0 0 0 1 2 1 0 0 0
39 40 49 66 78 80 73 58 42 29 19 9 4 2 0 0 0 0 0 0 0 0 0 0 0 0 0 0 0 0 0 0 0 0 0 0 1 4 7 5 2 1 0
35 33 41 57 69 72 67 56 44 33 23 13 7 3 1 1 0 0 0 0 0 0 0 0 0 0 0 0 0 0 0 0 0 0 0 0 2 8 13 12 8 4 1
29 27 30 42 51 56 56 52 43 32 23 16 9 4 2 2 1 1 1 1 0 1 1 0 0 0 0 0 0 0 0 0 0 0 0 0 5 15 20 19 16 9 4
18 19 20 24 29 34 39 40 34 26 20 15 10 5 3 2 2 2 2 2 2 3 3 2 1 1 1 1 0 0 0 0 0 0 0 0 7 20 27 27 24 17 11
7 10 13 13 13 16 20 23 21 17 14 11 7 4 2 1 1 2 4 4 4 6 9 7 4 2 2 2 1 0 0 0 0 0 0 0 6 21 34 36 32 26 22
4 5 8 8 7 7 8 10 11 9 7 5 3 2 1 1 2 3 5 5 7 11 16 15 11 8 6 4 2 1 0 0 0 0 0 1 6 20 38 45 42 36 31
7 7 6 6 5 5 5 6 5 4 2 1 1 1 0 1 2 3 4 6 9 13 19 22 22 22 18 11 6 3 1 0 0 0 0 2 11 27 47 55 52 45 39
21 18 14 12 10 7 8 8 5 3 3 2 2 1 2 3 4 3 3 5 10 15 22 29 33 31 27 21 13 7 4 1 0 1 1 4 15 35 54 61 57 49 44
46 40 34 31 26 21 18 15 10 7 8 7 4 4 7 9 8 6 4 5 11 18 24 31 35 32 28 24 17 10 5 3 2 2 2 4 13 31 50 57 53 46 42
69 65 58 53 48 41 33 26 20 16 15 12 9 10 13 13 12 9 6 5 9 14 18 21 23 24 22 19 14 8 5 4 3 2 3 4 9 21 36 45 43 36 32
76 75 70 64 57 49 41 34 28 24 21 17 16 17 17 15 13 11 8 5 5 6 7 9 10 11 11 10 8 6 5 5 4 3 3 5 8 13 23 32 33 27 23
69 68 65 59 50 39 32 28 26 24 21 18 17 18 17 14 11 9 6 4 3 2 3 4 4 2 2 3 4 4 4 5 5 4 4 5 6 7 13 21 24 22 20
55 54 50 45 36 25 19 16 16 15 15 14 13 12 11 9 7 5 4 3 3 3 3 3 2 0 0 0 1 2 3 4 4 4 3 3 2 3 6 11 14 16 17
37 35 33 28 21 14 10 7 6 6 6 6 7 6 4 4 4 3 3 3 3 3 3 2 1 0 0 0 0 0 1 2 3 4 3 3 2 2 2 4 6 8 10
19 17 15 13 9 6 4 3 2 1 1 1 2 2 1 1 1 1 2 2 1 1 1 1 0 0 0 0 0 0 0 1 3 4 4 3 2 1 1 1 1 3 4
7 6 5 4 3 1 1 2 1 0 0 0 0 0 0 0 0 0 1 1 0 0 0 0 0 0 0 0 0 0 0 0 1 3 3 3 2 1 0 0 0 1 1
1 1 2 2 1 0 0 1 1 0 0 0 0 0 0 0 0 0 0 0 0 0 0 0 0 0 0 0 0 0 0 0 1 2 2 1 1 0 0 0 0 0 0
1 1 1 1 1 0 0 0 0 0 0 0 0 0 0 0 0 0 0 0 0 0 0 0 0 0 0 0 0 0 0 0 0 1 1 0 0 0 0 0 0 0 0
2 2 1 0 0 0 0 0 0 0 0 0 0 0 0 0 0 0 0 0 0 0 0 0 0 0 0 0 0 0 0 0 0 0 0 0 0 0 0 0 0 0 0
3 2 1 0 0 0 0 0 0 0 0 0 0 0 0 0 0 0 0 0 0 0 0 0 0 0 0 0 0 0 0 0 0 0 0 0 0 0 0 0 0 0 0
3 1 0 0 0 0 0 0 0 0 0 0 0 0 0 0 0 0 0 0 0 0 0 0 0 0 0 0 0 0 0 0 0 0 0 0 0 0 0 0 0 0 0

GEFSSE_con_prob3kmehi_066.txt.gz
EHI
8 10 16 29 50 70 78 80 83 86 87 85 80 73 62 47 31 18 8 2 0 0 0 0 0 0 0 0 0 0 0 0 0 0 0 0 0 0 0 0 0 0 0
11 11 18 34 55 71 76 77 78 81 82 82 77 67 54 39 24 13 5 1 0 0 0 0 0 0 0 0 0 0 0 0 0 0 0 0 0 0 0 0 0 0 0
15 12 17 38 60 73 75 72 69 68 69 69 63 51 39 27 15 7 2 0 0 0 0 0 0 0 0 0 0 0 0 0 0 0 0 0 0 0 0 0 0 0 0
18 13 17 38 61 72 75 70 61 54 50 46 41 33 25 18 10 4 1 0 0 0 0 0 0 0 0 0 0 0 0 0 0 0 0 0 0 0 0 0 0 0 0
20 15 20 39 59 69 73 68 58 47 36 29 23 18 15 10 5 2 1 0 0 0 0 0 0 0 0 0 0 0 0 0 0 0 0 0 0 0 0 0 0 0 0
24 19 25 43 56 63 66 63 56 44 32 21 13 8 6 4 2 1 0 0 0 0 0 0 0 0 0 0 0 0 0 0 0 0 0 0 0 0 0 0 0 0 0
30 24 28 42 52 54 56 56 51 41 30 19 10 4 1 0 0 0 0 0 0 0 0 0 0 0 0 0 0 0 0 0 0 0 0 0 0 0 0 0 0 0 0
32 28 28 35 42 44 46 47 45 38 29 20 12 5 1 0 0 0 0 0 0 0 0 0 0 0 0 0 0 0 0 0 0 0 0 0 0 0 0 0 0 0 0
26 26 26 26 29 32 34 36 35 32 27 19 11 5 1 0 0 0 0 0 0 0 0 0 0 0 0 0 0 0 0 0 0 0 0 0 0 0 0 1 1 1 0
16 17 20 21 20 20 21 24 25 23 20 14 7 3 1 0 0 0 0 0 0 0 0 0 0 0 0 0 0 0 0 0 0 0 0 0 0 0 0 1 2 2 2
7 8 12 16 16 13 13 14 16 15 12 10 6 3 1 1 0 0 0 0 0 0 0 0 0 0 1 1 2 3 2 1 1 1 0 0 0 0 0 0 1 3 5
4 4 5 9 10 9 9 10 10 10 10 10 9 7 6 3 1 0 1 1 1 1 1 0 0 1 2 3 4 6 5 2 2 2 1 0 0 0 0 0 1 3 4
7 5 3 4 5 5 6 6 7 8 9 10 10 9 8 5 2 2 3 3 3 2 2 1 1 2 4 6 7 5 4 3 2 2 1 0 0 0 0 0 2 3 3
12 8 3 2 2 2 3 3 4 5 6 7 6 5 5 3 2 3 4 4 3 2 2 2 2 2 3 6 6 4 2 2 2 1 1 0 0 0 0 1 3 4 5
20 13 5 3 3 2 2 1 2 3 4 4 3 2 1 2 2 3 3 2 2 1 1 1 2 1 1 2 3 2 2 2 1 1 0 1 1 1 0 1 3 5 6
24 17 10 8 6 5 4 3 2 2 3 3 2 1 1 3 2 2 2 1 0 0 0 0 0 0 0 0 1 1 1 1 1 1 1 2 2 1 1 2 5 7 7
18 16 15 13 9 7 6 4 2 1 1 1 1 1 2 3 3 2 1 1 0 0 0 0 0 1 1 1 1 1 1 1 0 1 2 2 2 1 1 2 6 8 7
11 13 14 13 9 6 4 2 1 1 0 0 0 1 1 2 2 2 2 2 1 1 1 0 1 2 2 2 2 2 1 0 0 0 1 2 1 1 2 2 4 6 7
6 7 7 6 4 2 1 0 0 0 0 0 0 0 0 0 1 2 3 3 2 2 1 0 1 2 3 3 3 3 1 0 0 0 0 0 1 2 3 3 3 4 5
2 2 2 1 0 0 0 0 0 0 0 0 0 0 0 0 0 1 2 2 1 1 1 0 0 1 1 2 2 2 1 0 0 0 0 0 0 1 2 3 4 4 4
0 0 0 0 0 0 0 0 0 0 0 0 0 0 0 0 0 0 1 1 0 0 0 0 0 0 0 1 1 1 1 0 0 0 0 0 0 0 0 2 4 5 5
0 0 0 0 0 0 0 0 0 0 0 0 0 0 0 0 0 0 0 0 0 0 0 0 0 0 0 0 0 0 0 0 0 0 0 0 0 0 0 1 3 5 5
0 0 0 0 0 0 0 0 0 0 0 0 0 0 0 0 0 0 0 0 0 0 0 0 0 0 0 0 0 0 0 0 0 0 0 0 0 0 0 0 1 3 4
0 0 0 0 0 0 0 0 0 0 0 0 0 0 0 0 0 0 0 0 0 0 0 0 0 0 0 0 0 0 0 0 0 0 0 0 0 0 0 0 1 3 3
0 0 0 0 0 0 0 0 0 0 0 0 0 0 0 0 0 0 0 0 0 0 0 0 0 0 0 0 0 0 0 0 0 0 0 0 0 0 0 0 1 2 2
0 0 0 0 0 0 0 0 0 0 0 0 0 0 0 0 0 0 0 0 0 0 0 0 0 0 0 0 0 0 0 0 0 0 0 0 0 0 0 0 1 1 1

GEFSSE_con_prob3kmehi_072.txt.gz
EHI
9 10 8 4 1 1 6 17 30 42 50 52 46 34 19 7 1 0 0 0 0 0 0 0 0 0 0 0 0 0 0 0 0 0 0 0 0 0 0 0 0 0 0
14 13 9 4 2 2 8 22 35 46 54 56 53 43 26 10 3 1 0 0 0 0 0 0 0 0 0 0 0 0 0 0 0 0 0 0 0 0 0 0 0 0 0
14 13 8 5 5 6 13 28 42 52 59 61 57 48 30 13 6 3 1 0 0 0 0 0 0 0 0 0 0 0 0 0 0 0 0 0 0 0 0 0 0 0 0
7 8 7 7 8 9 16 29 43 53 58 58 53 42 27 13 7 4 1 0 0 0 0 0 0 0 0 0 0 0 0 0 0 0 0 0 0 0 0 0 0 0 0
2 5 9 10 9 10 16 27 37 45 49 46 39 29 18 10 5 2 0 0 0 0 0 0 0 0 0 0 0 0 0 0 0 0 0 0 0 0 0 0 0 0 0
0 3 8 9 7 9 16 24 30 34 35 32 25 17 11 7 3 1 0 0 0 0 0 0 0 0 0 0 0 0 0 0 0 0 0 0 0 0 0 0 0 0 0
0 1 4 6 5 6 11 16 19 20 21 19 16 12 8 5 2 0 0 0 0 0 0 0 0 0 0 0 0 0 0 0 0 0 0 0 0 0 0 0 0 0 0
0 0 2 3 3 3 5 8 10 10 11 11 10 8 6 4 1 0 0 0 0 0 0 0 0 0 0 0 0 0 0 0 0 0 0 1 1 1 0 0 0 0 0
0 0 0 1 1 1 3 6 7 7 8 8 6 4 3 1 0 0 0 1 1 0 0 0 0 0 0 0 0 0 0 0 0 0 0 2 3 2 0 0 0 0 0
1 0 0 0 0 0 2 6 7 7 7 7 5 2 1 0 0 0 1 2 2 1 0 0 0 0 0 0 1 1 0 0 0 0 2 6 7 2 0 0 0 0 0
2 1 0 0 0 1 3 5 7 7 7 6 5 4 3 1 0 1 3 4 2 1 1 1 1 1 0 1 2 2 1 1 0 0 6 15 12 3 0 0 0 0 0
2 1 0 0 1 1 3 6 7 7 7 6 6 7 6 5 3 4 7 6 2 1 2 5 6 3 1 2 5 5 4 2 1 0 12 25 19 5 0 0 0 0 0
1 0 0 0 1 2 4 7 8 9 8 6 6 6 8 11 10 9 10 9 5 5 8 14 15 9 5 6 6 6 5 3 2 1 15 30 24 8 1 0 0 0 0
3 2 0 1 2 5 9 10 11 11 9 8 9 10 12 16 18 17 18 16 14 16 18 21 22 16 12 10 6 4 3 3 3 5 18 30 24 9 2 0 0 0 0
10 8 6 6 8 11 15 16 14 15 14 12 14 15 17 21 22 22 24 22 20 22 24 22 20 19 16 11 6 3 3 4 6 9 18 26 19 8 3 1 1 1 1
20 20 18 16 14 16 19 19 17 16 16 14 12 12 17 21 21 22 22 20 19 21 22 18 15 15 15 11 7 5 5 6 7 9 13 17 14 7 3 2 2 3 3
29 28 26 21 19 20 21 19 15 11 11 10 6 6 9 13 16 17 17 15 14 16 16 14 11 12 12 10 8 7 7 7 6 5 7 8 8 6 4 3 3 4 4
29 29 26 22 22 23 22 18 11 6 5 4 3 2 3 5 8 10 10 10 10 10 10 9 8 8 8 8 7 7 7 7 5 4 3 4 5 6 6 6 7 6 5
24 25 24 21 20 20 16 10 6 3 2 1 0 0 1 2 2 3 4 5 5 5 5 6 5 5 5 5 5 5 6 6 5 3 2 2 4 6 7 9 12 11 7
17 18 17 15 14 11 6 3 1 1 1 0 0 0 0 0 1 1 1 2 2 2 3 3 3 4 4 3 4 5 5 5 5 4 3 2 2 2 3 7 14 16 12
8 8 6 6 7 5 2 1 0 0 0 0 0 0 0 0 0 0 0 1 1 1 1 1 2 3 3 3 3 4 4 4 4 5 5 4 2 1 1 4 10 15 16
2 1 1 2 3 3 2 1 0 0 0 0 0 0 0 0 0 0 0 0 0 0 0 0 1 1 1 1 1 2 2 2 3 3 4 5 4 3 2 2 5 8 12
0 0 1 3 4 5 4 2 0 0 0 0 0 0 0 0 0 0 0 0 0 0 0 0 0 0 0 0 0 1 1 1 1 2 2 2 3 3 3 2 2 3 4
0 1 5 8 11 13 11 7 4 2 1 0 0 0 0 0 0 0 0 0 0 0 0 0 0 0 0 0 0 0 0 0 0 1 0 0 1 1 1 1 1 1 0
1 3 8 16 23 23 19 14 9 5 2 0 0 0 0 0 0 0 0 0 0 0 0 0 0 0 0 0 0 0 0 0 0 0 0 0 0 0 0 0 1 0 0
3 4 8 19 29 30 23 17 12 6 2 0 0 0 0 0 0 0 0 0 0 0 0 0 0 0 0 0 0 0 0 0 0 0 0 0 0 0 0 0 1 0 0

GEFSSE_con_prob3kmehi_078.txt.gz
EHI
70 65 61 42 17 5 2 2 2 1 0 0 0 0 0 0 0 0 0 0 0 0 0 0 0 0 0 0 0 0 0 0 0 0 0 0 0 0 0 0 1 0 0
68 64 59 44 19 5 1 1 2 1 1 0 0 0 0 0 0 0 0 0 0 0 0 0 0 0 0 0 0 0 0 0 0 0 0 0 0 0 0 1 2 1 0
52 50 49 41 22 7 1 1 2 2 2 2 1 0 0 0 0 0 0 0 0 0 0 0 0 0 0 0 0 0 0 0 0 0 0 0 0 0 0 1 2 1 0
30 33 39 37 24 10 4 3 4 5 5 4 3 1 1 0 0 0 0 0 0 0 0 0 0 0 0 0 0 0 0 0 0 1 1 1 1 0 0 0 1 0 0
24 29 37 37 26 14 8 7 9 10 10 9 7 4 2 0 0 0 0 0 0 0 0 0 0 0 0 0 0 0 0 0 2 3 2 2 2 1 0 0 0 0 0
29 30 33 35 28 16 11 10 13 15 13 12 11 6 2 1 0 0 0 0 0 0 0 0 0 0 0 0 0 0 0 1 4 5 5 4 3 1 1 0 0 0 0
34 29 27 28 24 15 11 10 12 14 13 12 10 6 2 1 0 0 0 0 0 0 0 0 0 0 0 0 0 0 0 1 2 5 10 12 9 5 2 1 0 0 0
42 29 21 20 17 11 8 6 6 8 9 8 6 3 1 0 0 0 0 0 0 0 0 1 0 0 0 1 1 1 1 1 1 4 14 22 20 13 7 2 0 0 0
48 30 16 13 10 7 5 3 3 5 5 5 4 2 0 0 0 0 0 0 0 0 1 3 2 0 0 1 2 2 2 2 2 3 14 27 30 24 14 5 1 0 0
46 29 16 13 9 4 4 5 5 5 5 3 2 1 0 0 1 1 3 3 2 0 2 3 2 1 0 1 2 2 2 2 2 3 15 33 40 33 22 10 3 0 0
40 30 23 21 12 5 9 12 9 6 5 4 3 3 1 1 3 5 9 11 8 3 3 3 2 2 1 2 2 2 1 1 1 4 22 44 50 41 31 19 8 2 0
36 31 33 34 22 13 20 23 16 14 15 13 13 13 9 6 8 14 20 21 14 7 5 5 4 3 2 3 5 4 1 0 0 6 26 51 56 48 40 29 16 6 2
33 32 41 45 35 31 37 36 29 30 34 34 33 31 23 17 18 26 31 28 20 12 10 12 10 6 3 5 9 8 3 1 1 7 26 48 55 50 44 37 26 14 8
34 37 47 55 51 50 51 47 43 44 49 51 50 44 36 29 30 35 37 35 30 22 19 20 19 12 8 10 11 8 5 3 4 10 24 40 47 46 44 40 33 22 15
44 48 58 66 64 59 55 50 46 46 47 48 45 42 38 34 34 36 36 35 31 25 23 23 21 15 13 13 11 7 6 6 8 14 23 34 40 41 40 38 34 27 20
59 63 68 69 65 58 50 44 38 34 33 33 32 31 30 31 30 29 26 23 21 20 21 20 16 12 11 12 11 9 8 8 11 15 22 29 35 36 35 33 33 28 24
72 74 70 63 59 56 47 37 28 23 22 24 24 23 23 23 21 18 16 15 14 14 15 15 12 9 8 8 9 9 8 9 12 14 18 23 27 27 26 28 28 26 24
79 77 69 57 54 53 45 32 24 21 19 19 19 19 18 15 12 12 12 12 11 11 10 9 9 8 7 7 7 7 8 11 12 11 11 14 15 15 16 20 22 20 19
75 73 67 58 50 44 35 24 18 17 15 13 13 15 12 7 6 7 9 9 8 8 8 6 6 7 6 7 7 5 6 10 12 10 9 8 7 7 8 12 16 14 11
68 68 65 57 45 32 23 17 14 13 11 9 10 10 8 4 2 3 5 6 5 5 6 5 4 4 5 5 5 4 4 6 9 12 12 10 7 5 6 12 17 16 12
60 60 58 49 33 23 18 15 12 11 9 8 9 9 7 5 3 2 3 4 2 2 3 2 2 2 3 3 3 3 3 4 6 9 12 12 8 5 6 13 22 24 21
45 45 42 37 26 17 15 14 12 11 9 8 11 12 8 6 5 3 3 3 2 1 1 1 1 1 1 1 2 2 2 3 3 4 7 8 7 5 5 11 20 25 25
29 29 31 37 33 21 16 14 12 11 8 9 14 16 10 6 5 4 4 3 3 2 1 0 0 0 0 0 1 1 1 1 2 2 3 5 5 4 3 5 10 15 17
22 25 39 53 50 36 26 19 15 12 9 10 16 18 14 8 5 4 3 3 3 3 1 0 0 0 0 0 0 0 0 0 1 1 2 3 4 3 3 3 4 6 7
23 32 52 68 65 50 34 25 18 12 9 10 13 14 13 10 5 3 3 3 3 2 1 0 0 0 0 0 0 0 0 0 0 0 1 1 1 1 1 2 2 2 2
25 36 57 73 71 55 38 26 20 14 9 7 7 9 11 10 6 3 2 4 4 2 0 0 0 0 0 0 0 0 0 0 0 0 0 0 0 0 0 1 1 1 0

GEFSSE_con_prob3kmehi_084.txt.gz
EHI
10 14 23 34 38 35 26 16 9 7 7 7 6 3 2 2 1 0 0 0 0 0 0 0 0 0 0 0 0 0 0 0 0 0 0 0 0 0 0 0 0 0 0
26 23 27 38 43 37 26 14 8 7 7 7 5 2 1 1 0 0 0 0 0 0 0 0 0 0 0 0 0 0 0 0 0 0 0 0 0 0 0 0 0 0 0
50 37 33 43 47 39 26 14 9 7 6 5 3 1 0 0 0 0 0 0 0 0 0 0 0 0 0 0 0 0 0 0 0 0 0 0 0 0 0 0 0 0 0
64 48 40 47 48 39 26 18 12 8 6 4 3 1 0 0 0 0 0 0 0 0 0 0 0 0 0 0 0 0 0 0 0 0 0 0 0 0 0 0 0 0 0
67 55 49 54 51 40 30 23 17 11 7 5 3 2 1 1 0 0 0 0 0 0 0 0 0 0 0 0 0 0 0 0 0 0 0 0 0 0 0 0 0 0 0
65 57 55 61 59 48 37 28 22 16 10 7 5 3 2 2 1 0 0 0 0 0 0 0 0 0 0 0 0 0 0 0 0 0 0 0 0 0 0 0 0 0 0
60 54 55 63 65 57 44 34 26 19 14 10 6 4 3 3 2 1 0 0 0 0 0 0 0 0 0 0 0 0 0 0 0 0 0 0 0 0 1 1 0 0 0
54 51 50 55 59 57 48 37 28 22 17 11 7 5 4 3 2 1 0 0 0 0 0 0 0 0 0 0 0 0 0 0 0 0 0 0 1 3 4 3 2 1 0
45 44 42 40 43 46 43 36 29 21 15 10 8 5 3 1 1 1 1 1 0 0 0 0 0 0 0 0 0 0 1 1 1 0 0 1 4 9 9 7 4 2 1
30 32 30 26 25 26 26 25 21 14 9 7 6 4 1 0 1 2 2 1 1 1 0 0 0 0 0 0 0 1 2 2 1 0 0 2 8 13 13 10 7 4 2
16 18 18 15 12 10 9 9 8 5 3 3 3 2 1 0 1 2 2 1 1 1 0 0 0 1 2 1 0 1 2 2 1 1 0 3 10 17 14 10 8 6 3
8 8 9 7 4 3 2 2 1 1 1 2 2 1 1 1 1 2 2 2 1 0 0 0 0 2 3 3 1 1 1 1 1 1 0 4 12 18 15 10 7 6 4
6 7 6 3 2 3 3 3 2 1 2 3 3 3 2 2 2 3 3 2 1 0 0 0 0 1 2 2 1 1 0 0 0 0 1 6 12 15 13 8 5 5 5
16 16 13 10 8 9 10 8 6 4 4 4 4 3 2 1 1 1 1 1 1 0 0 0 0 0 1 1 1 0 0 0 0 0 2 6 9 10 8 6 4 5 7
38 35 30 26 23 21 17 13 10 7 4 3 2 1 0 0 0 0 0 0 0 0 1 0 0 0 0 0 0 0 0 0 0 0 1 5 6 5 4 4 4 5 7
55 50 43 38 33 28 21 14 10 6 2 1 0 0 0 0 0 0 1 0 0 0 0 0 0 0 0 0 0 0 0 0 0 0 0 2 3 2 2 3 4 5 6
55 51 43 35 29 25 19 12 8 4 1 0 0 0 1 0 0 0 0 0 0 0 0 0 0 0 0 0 0 0 0 0 0 0 0 0 1 2 2 3 4 6 6
47 44 37 29 23 19 14 10 7 5 2 0 0 0 0 0 0 0 0 0 0 0 0 0 0 0 0 0 0 0 0 0 0 0 0 0 0 1 2 2 3 5 6
38 36 31 23 17 13 10 7 6 5 2 0 0 0 0 0 0 0 0 0 0 0 0 0 0 0 0 0 0 0 0 0 0 0 0 0 0 0 1 1 1 3 4
30 28 24 16 9 6 4 3 3 2 1 0 0 0 0 0 0 0 0 0 0 0 0 0 0 0 0 0 0 0 0 0 0 0 0 0 0 0 0 0 0 1 1
24 21 16 10 5 2 1 0 1 1 0 0 0 0 0 0 0 0 0 0 0 0 0 0 0 0 0 0 0 0 0 0 0 0 0 0 0 0 0 0 0 0 0
17 13 8 6 3 1 0 0 0 0 0 0 0 0 0 0 0 0 0 0 0 0 0 0 0 0 0 0 0 0 0 0 0 0 0 0 0 0 0 0 0 0 0
10 7 5 4 3 1 0 0 0 0 0 0 0 0 0 0 0 0 0 0 0 0 0 0 0 0 0 0 0 0 0 0 0 0 0 0 0 0 0 0 0 0 0
7 6 4 3 2 1 0 0 0 0 0 0 0 0 0 0 0 0 0 0 0 0 0 0 0 0 0 0 0 0 0 0 0 0 0 0 0 0 0 0 0 0 0
6 5 3 3 2 1 1 1 1 0 0 0 0 0 0 0 0 0 0 0 0 0 0 0 0 0 0 0 0 0 0 0 0 0 0 0 0 0 0 0 0 0 0
6 4 2 2 2 2 2 2 1 0 0 0 0 0 0 0 0 0 0 0 0 0 0 0 0 0 0 0 0 0 0 0 0 0 0 0 0 0 0 0 0 0 0

GEFSSE_con_prob3kmehi_090.txt.gz
EHI
1 2 7 16 32 50 61 62 56 48 42 37 33 26 17 10 4 1 0 0 0 0 0 0 0 0 0 0 0 0 0 0 0 0 0 0 0 0 0 0 0 0 0
4 4 9 21 36 51 59 59 54 47 40 33 28 21 13 7 3 2 0 0 0 0 0 0 0 0 0 0 0 0 0 0 0 0 0 0 0 0 0 0 0 0 0
12 10 14 27 42 53 57 55 51 45 35 27 21 15 9 5 3 1 0 0 0 0 0 0 1 1 1 0 0 0 0 0 0 0 0 0 0 0 0 0 0 0 0
22 17 20 33 46 54 56 54 49 39 27 20 15 10 7 6 4 1 0 0 0 0 0 1 2 2 2 1 0 0 0 0 0 0 0 0 0 0 0 0 0 0 0
28 24 27 39 50 54 55 52 45 32 20 13 9 6 6 6 4 1 0 0 0 0 0 1 2 3 2 1 0 0 0 0 0 0 0 0 0 0 0 0 0 0 0
30 28 32 44 51 51 50 47 38 28 18 12 7 5 6 6 3 1 0 0 0 0 0 0 1 1 1 1 0 0 0 0 0 0 0 0 0 0 0 0 0 0 0
37 34 37 45 48 47 45 42 35 26 17 10 6 5 6 4 2 0 0 0 0 0 0 1 1 1 0 0 0 0 0 0 0 0 0 0 0 0 0 0 0 0 0
45 42 42 43 43 43 43 40 34 26 16 10 7 6 5 3 1 0 0 0 1 1 1 1 1 1 0 0 0 0 0 0 0 0 0 0 0 0 0 0 0 0 0
49 48 45 41 38 39 39 36 30 23 16 9 6 4 3 2 1 0 0 0 2 2 1 0 0 0 0 0 0 0 0 0 0 0 0 0 0 0 1 1 0 0 0
41 43 43 40 37 34 31 27 23 19 13 7 3 1 1 1 0 0 0 0 1 1 1 0 0 0 0 1 1 1 0 0 0 0 0 0 0 1 2 2 1 0 0
25 30 34 34 34 30 25 21 18 14 8 3 0 0 0 0 0 0 0 0 0 0 0 0 0 0 0 1 2 2 1 0 0 0 0 0 0 1 2 2 1 0 0
12 17 21 24 27 26 22 17 13 9 5 2 0 0 0 0 0 0 0 0 0 0 0 0 0 0 0 1 2 2 1 1 0 0 0 0 0 0 1 2 1 0 0
6 8 12 16 18 18 15 11 8 7 5 3 1 0 0 0 0 0 0 0 0 0 0 0 0 0 0 0 1 1 0 0 0 0 0 1 2 1 2 3 3 2 1
4 5 7 9 9 8 7 6 5 5 4 2 1 0 0 0 0 0 0 0 0 0 0 0 0 0 0 0 0 0 0 0 0 0 0 1 2 3 2 3 4 3 1
5 4 3 3 3 2 2 4 3 2 1 1 0 0 0 1 0 0 0 0 0 0 0 0 0 0 0 0 0 0 0 0 1 0 0 0 1 2 2 2 3 2 1
3 2 1 1 2 1 2 2 1 0 0 0 0 0 0 0 0 0 0 0 0 0 0 0 0 0 0 0 0 0 0 0 0 0 0 0 0 1 1 2 2 1 0
3 2 2 3 3 2 2 1 0 0 0 0 0 0 0 0 0 0 0 0 0 0 0 0 0 0 0 0 0 0 0 0 0 0 0 0 0 0 2 3 2 1 0
4 3 3 3 3 3 3 2 1 0 0 0 0 0 0 0 0 0 0 0 0 0 0 0 0 0 0 0 0 0 0 0 0 0 0 0 0 0 1 2 2 1 0
5 5 4 4 3 3 2 2 1 0 0 0 0 0 0 0 0 0 0 0 0 0 0 0 0 0 0 0 0 0 0 0 0 0 0 0 0 0 0 0 0 0 0
6 6 5 3 2 1 1 1 0 0 0 0 0 0 0 0 0 0 0 0 0 0 0 0 0 0 0 0 0 0 0 0 0 0 0 0 0 0 0 0 0 0 0
7 5 3 2 1 0 0 0 0 0 0 0 0 0 0 0 0 0 0 0 0 0 0 0 0 0 0 0 0 0 0 0 0 0 0 0 0 0 0 0 0 0 0
5 2 1 0 0 0 0 0 0 0 0 0 0 0 0 0 0 0 0 0 0 0 0 0 0 0 0 0 0 0 0 0 0 0 0 0 0 0 0 0 0 0 0
2 1 1 1 0 0 0 0 0 0 0 0 0 0 0 0 0 0 0 0 0 0 0 0 0 0 0 0 0 0 0 0 0 0 0 0 0 0 0 0 0 0 0
2 1 1 1 0 0 0 0 0 0 0 0 0 0 0 0 0 0 0 0 0 0 0 0 0 0 0 0 0 0 0 0 0 0 0 0 0 0 0 0 0 0 0
2 2 1 1 0 0 0 0 0 0 0 0 0 0 0 0 0 0 0 0 0 0 0 0 0 0 0 0 0 0 0 0 0 0 0 0 0 0 0 0 0 0 0
1 1 0 0 0 0 0 0 0 0 0 0 0 0 0 0 0 0 0 0 0 0 0 0 0 0 0 0 0 0 0 0 0 0 0 0 0 0 0 0 0 0 0

GEFSSE_con_prob3kmehi_096.txt.gz
EHI
0 1 1 1 2 8 19 29 35 38 39 37 27 13 5 3 2 1 0 0 0 0 0 0 0 0 0 0 0 0 0 0 0 0 0 0 0 0 0 0 0 1 1
1 2 3 3 5 13 23 30 35 36 36 33 23 11 5 3 1 0 0 0 0 0 0 0 0 0 0 0 0 0 0 0 0 0 0 0 0 0 0 0 0 0 1
1 3 5 6 8 15 24 30 32 33 31 26 18 9 5 3 1 0 0 0 0 0 0 0 0 0 0 0 0 0 0 0 0 0 0 0 0 0 0 0 0 0 0
2 4 7 9 9 14 21 27 29 29 26 21 14 8 5 3 1 0 0 0 0 0 0 0 0 0 0 0 0 0 0 0 0 0 0 0 0 0 0 0 0 0 0
4 5 9 10 9 11 17 22 26 26 23 17 11 7 5 4 2 1 0 0 0 0 0 0 0 0 0 0 0 0 0 0 1 0 0 0 0 0 0 0 0 0 0
4 6 9 10 9 10 12 16 21 22 20 15 9 6 4 3 2 1 0 0 0 0 0 0 0 0 0 0 0 0 0 1 2 1 0 0 0 0 0 0 0 0 0
2 5 8 10 10 9 9 13 16 18 16 13 8 5 3 2 1 0 0 0 0 0 0 0 0 0 0 0 0 0 0 1 2 1 0 0 0 0 0 0 0 0 0
1 4 7 9 8 8 9 12 14 14 13 11 8 4 2 1 0 0 0 0 0 0 0 0 0 0 0 0 0 0 0 0 0 0 0 0 0 0 0 0 0 0 0
2 3 5 6 5 5 8 12 12 12 12 9 6 4 2 0 0 0 0 0 0 1 1 1 0 0 0 0 0 0 0 0 0 0 0 0 0 0 0 0 0 0 0
4 4 4 4 3 3 5 8 10 11 11 8 4 2 2 0 0 0 0 0 0 1 2 1 0 0 0 0 1 0 0 0 0 0 0 0 0 0 0 0 0 0 0
6 5 4 4 3 2 3 4 6 8 9 5 2 1 1 0 0 0 0 0 0 1 1 1 0 0 0 0 0 0 0 0 0 0 1 2 1 0 0 0 0 0 0
7 5 4 4 3 3 3 3 3 5 6 4 2 1 1 1 1 0 0 0 0 0 0 0 0 0 0 0 0 0 0 0 0 0 1 2 1 0 0 0 0 0 0
10 6 3 5 4 5 6 6 5 5 6 5 5 4 3 3 3 3 2 2 1 1 0 1 1 0 0 0 0 0 1 1 1 1 2 3 1 0 0 0 0 0 0
14 9 6 7 6 6 8 7 6 7 8 8 8 6 4 3 4 7 7 5 3 2 1 2 2 1 0 0 0 0 1 1 2 2 3 3 1 0 1 1 1 0 1
16 12 10 9 7 7 7 7 7 8 8 8 7 4 2 2 4 8 9 6 4 3 3 3 2 1 0 0 0 0 0 1 1 1 1 1 1 1 1 2 2 1 1
12 12 12 10 7 6 6 6 8 8 7 4 2 2 1 2 3 6 7 5 3 4 4 3 1 0 0 0 0 0 0 0 0 0 0 0 0 1 1 1 2 2 1
8 9 9 9 8 7 5 4 6 6 3 1 1 1 1 2 2 4 4 3 3 3 4 3 1 0 0 0 0 0 0 0 0 0 0 0 1 1 0 0 1 1 1
6 7 8 9 11 11 8 5 5 3 0 0 1 1 1 1 1 1 2 2 2 2 3 3 1 0 0 0 0 0 0 0 0 0 0 1 2 1 0 0 0 1 1
5 7 10 13 15 16 13 9 5 1 0 0 0 0 0 0 0 0 0 0 0 1 2 2 1 0 0 0 0 0 0 0 0 0 0 0 1 0 0 0 0 0 0
6 8 12 15 17 18 16 11 5 1 0 0 0 0 0 0 0 0 0 0 0 1 1 1 1 0 0 0 0 0 0 0 0 0 0 0 0 0 0 0 0 0 1
9 10 12 14 15 16 15 10 5 2 1 0 0 0 0 0 0 0 0 0 0 0 0 0 0 0 0 0 0 0 0 0 0 0 0 0 0 0 0 0 0 0 1
12 11 12 13 13 14 13 10 6 3 1 1 1 1 0 0 0 0 0 0 0 0 0 0 0 0 0 0 0 0 0 0 0 0 0 0 0 1 1 0 0 0 1
11 12 13 15 16 16 14 10 6 3 1 1 2 2 1 1 0 0 0 0 0 0 0 0 0 0 0 0 0 0 0 0 0 0 0 0 0 1 1 0 0 0 0
12 14 16 19 21 19 15 10 6 2 1 2 3 3 2 2 1 0 0 0 0 0 0 0 0 0 0 0 0 0 0 0 0 0 0 0 0 1 1 0 0 0 0
15 16 19 23 24 20 14 10 6 2 2 2 2 2 3 3 2 1 1 0 0 0 0 0 0 0 0 0 0 0 0 0 0 0 0 0 0 0 0 0 0 0 0
16 17 20 24 24 18 12 9 6 3 1 1 1 1 2 3 3 2 2 1 0 0 0 0 0 0 0 0 0 0 0 0 0 0 0 0 0 0 0 0 0 0 0